Location: Mentone
(34.5413°N, 85.5351°W)
Time: 01:51:36
(UTC-05:00)

Vanguard 2 Rocket - Visible Passes

Search period start: 28 September 2016 00:00
Search period end: 08 October 2016 00:00
Orbit: 556 x 3327 km, 32.9° (Epoch: 26 September)

Date Brightness Start Highest point End Pass type
(mag) Time Alt. Az. Time Alt. Az. Time Alt. Az.
28 Sep 10.0 05:03:20 10° SSW 05:15:30 27° SSE 05:23:48 10° E visible
29 Sep 10.4 04:03:37 10° S 04:14:58 21° SSE 04:23:29 10° ESE visible
30 Sep 10.6 03:05:11 10° S 03:14:13 16° SE 03:21:46 10° ESE visible
30 Sep 9.6 05:15:55 10° SW 05:30:33 39° SSE 05:39:45 10° E visible
01 Oct 10.9 02:11:59 10° SE 02:13:17 10° SE 02:14:35 10° SE visible
01 Oct 10.0 04:15:52 11° SSW 04:29:59 32° SSE 04:40:07 10° E visible
02 Oct 10.3 03:20:35 18° S 03:29:11 25° SSE 03:39:43 10° E visible
02 Oct 9.3 05:29:21 10° SW 05:45:31 52° SSE 05:55:12 10° E visible
03 Oct 10.6 02:25:14 18° SSE 02:28:14 19° SE 02:38:02 10° ESE visible
03 Oct 9.6 04:31:07 16° SSW 04:44:53 44° SSE 04:55:51 10° E visible
04 Oct 10.8 01:29:48 12° SE 01:29:48 12° SE 01:33:27 10° ESE visible
04 Oct 9.9 03:35:41 26° S 03:44:00 36° SSE 03:56:00 10° E visible
04 Oct 9.1 05:43:24 10° WSW 06:00:28 64° SSE 06:10:23 10° E visible
05 Oct 10.2 02:40:10 28° SSE 02:42:57 29° SE 02:55:22 10° E visible
05 Oct 9.4 04:46:01 20° SW 04:59:45 57° SSE 05:11:11 10° E visible
06 Oct 10.5 01:44:34 21° SE 01:44:34 21° SE 01:53:31 10° E visible
06 Oct 9.6 03:50:25 33° SSW 03:58:46 48° SSE 04:11:36 10° E visible
06 Oct 8.9 05:57:56 10° WSW 06:15:25 75° SSE 06:25:28 10° E visible
07 Oct 10.9 00:48:54 10° ESE 00:48:54 10° ESE 00:49:10 10° ESE visible
07 Oct 9.9 02:54:44 38° SSE 02:57:35 40° SSE 03:11:27 10° E visible
07 Oct 9.2 05:00:36 21° WSW 05:14:38 68° SSE 05:26:19 10° E visible
